Starlink 31904

operational
NORAD ID: 59657 Int'l Des: 2024-084 Owner: SPXS Country: US Constellation: starlink
LEOCIRCULAR

Starlink 31904について

説明を読み込み中...

リアルタイム位置

3D地球を読み込み中...

次回通過

高度履歴

Altitude vs Time

uPlot chart will show altitude changes over time

軌道要素

1 59657U 24084D 25260.16242255 -.00001182 00000-0 -33426-4 0 9998
2 59657 43.0022 301.8549 0001460 285.5746 74.4944 15.27579103 77830
Epoch: Sep 17, 2025 • Age: 7 hours

現在のステータス

高度 482.9 km
速度 7.63 km/s
衛星直下点 2.10°N, 42.87°W
打ち上げ日 May 6, 2024
運用期間 1.3 years
タイプ internet

技術仕様

分類 Payload
質量 730.00 kg
乾燥質量 700.00 kg
総質量 730.00 kg
長さ 0.30 m
直径 4.10 m
スパン 29.00 m
形状 Box + pan
製造者 SPXS
バスタイプ Starlink V2M
フェーズステータス In Orbit
所有者/国 SPXS/US

大規模コンステレーション

Loading constellations...